[[{"header":{"parameterUnit":"m.s-1","parameterCategory":1,"la1":30.2991,"la2":30.254,"lo1":-89.0895,"lo2":-89.0444,"dy":0.0017,"dx":0.0017,"nx":28,"ny":28,"refTime":"2023-08-31T21:00:00:Z","depth":0,"parameterNumber":2,"parameterNumberName":"U-component_of_WINDS"},"data":[0,0,0,0,0,0,0,0,0,0,0,0,0,0,0,0,0,0,0,0,0,0,0,0,0,0,0,0,0,0,0,0,0,0,0,0,0,0,0,0,0,0,0,0,0,0,0,0,0,0,0,0,0,0,0,0,0,0,0.3196,0.3195,0,0.312,0.3119,0.3118,0.3081,0.3081,0.3081,0.3081,0.3,0.2997,0.2995,0,0,0,0,0,0,0,0,0,0,0,0,0,0.3306,0.3304,0.3196,0.3195,0.3194,0.312,0.3119,0.3118,0.3081,0.3081,0.3081,0.3081,0.3,0.2998,0.2995,0,0,0,0,0,0,0,0,0,0,0,0,0,0.3247,0.3304,0.3196,0.3167,0.3163,0.312,0.3119,0.3118,0.3081,0.3081,0.3081,0.3081,0.3001,0.2998,0.2995,0.2974,0,0,0.2985,0.2983,0,0,0,0,0,0,0,0,0.325,0.3243,0.3172,0.3169,0.3165,0.311,0.3128,0.3069,0.3081,0.3112,0.3081,0.3081,0.3036,0.303,0.3015,0.297,0.2966,0.2984,0.2982,0.2981,0.298,0,0,0,0,0,0,0,0.3255,0.3246,0.3166,0.3171,0.3167,0.3156,0.3148,0.3117,0.3075,0.3109,0.3107,0.3098,0.3034,0.3019,0.3013,0.2965,0.2984,0.2982,0.2979,0.2978,0.29,0.29,0,0,0,0,0,0,0.3264,0.325,0.3168,0.3163,0.3209,0.3154,0.3145,0.3127,0.3075,0.3067,0.3098,0.3097,0.3024,0.3017,0.301,0.2983,0.2981,0.2978,0.2976,0.29,0.29,0.29,0,0,0,0,0,0,0.3266,0.3257,0.3171,0.3206,0.3194,0.3153,0.3133,0.3126,0.3111,0.3067,0.3059,0.3091,0.3024,0.3015,0.2984,0.298,0.2976,0.2973,0.29,0.29,0.29,0.2928,0,0,0,0,0,0,0.327,0.3258,0.325,0.3206,0.3192,0.3147,0.3133,0.3124,0.3105,0.3103,0.3057,0.305,0.3023,0.2989,0.298,0.2975,0.2971,0.29,0.29,0.29,0.2928,0.2929,0.2931,0,0,0,0,0,0.3274,0.326,0.325,0.324,0.3182,0.3146,0.3139,0.311,0.3105,0.3097,0.3069,0.3051,0.2982,0.2986,0.2976,0.297,0.29,0.29,0.29,0.2927,0.2929,0.2931,0,0,0,0,0,0,0.3303,0.3254,0.3242,0.3214,0.3185,0.314,0.3128,0.3112,0.3083,0.3082,0.3046,0.3036,0.3008,0.2986,0.2991,0.2947,0.2939,0.2937,0.2963,0.2965,0.2966,0.2972,0.2968,0,0,0,0,0,0.3307,0.3283,0.3241,0.322,0.3206,0.317,0.3153,0.3134,0.3102,0.3089,0.3059,0.3028,0.2999,0.298,0.2951,0.2924,0.2914,0.2915,0.2917,0.2918,0.2917,0.2902,0.2902,0.2899,0.2899,0.2899,0,0,0.3313,0.3283,0.327,0.3225,0.32,0.3176,0.316,0.3134,0.3116,0.3085,0.3054,0.3031,0.2994,0.2965,0.2951,0.2945,0.2915,0.2918,0.2919,0.2917,0.2901,0.2902,0.2902,0.2899,0.2899,0.2899,0,0,0.3312,0.3287,0.3268,0.3244,0.3207,0.3184,0.3179,0.3138,0.3122,0.3091,0.3067,0.3044,0.2995,0.297,0.2951,0.2943,0.2926,0.2934,0.2942,0.2928,0.2928,0.2928,0.2926,0.2925,0.2933,0.2933,0.2933,0,0.3324,0.3288,0.3259,0.3236,0.3217,0.319,0.317,0.3147,0.3103,0.309,0.3085,0.3024,0.2997,0.2963,0.2961,0.2946,0.294,0.2939,0.2931,0.293,0.293,0.2927,0.2926,0.2934,0.2934,0.2934,0.2934,0,0.3304,0.328,0.3268,0.3228,0.3208,0.3186,0.3154,0.3137,0.312,0.3096,0.3066,0.3033,0.2997,0.2987,0.2969,0.295,0.2949,0.2938,0.2929,0.2932,0.2929,0.2928,0.2936,0.2936,0.2935,0.2935,0,0,0.3318,0.3265,0.3261,0.3243,0.3202,0.3182,0.3159,0.3126,0.3112,0.3083,0.3063,0.3023,0.3013,0.2991,0.2971,0.2958,0.2955,0.2949,0.2947,0.2951,0.2933,0.2942,0.2941,0.2944,0.2943,0.2943,0.2936,0,0.3312,0.3272,0.3246,0.3216,0.3193,0.3168,0.3148,0.312,0.3098,0.3075,0.305,0.3023,0.3012,0.2999,0.2985,0.2958,0.2951,0.2958,0.2924,0.2923,0.2935,0.2939,0.2948,0.2943,0.2935,0.2935,0.2934,0,0.3299,0.3273,0.324,0.3204,0.3193,0.3176,0.3144,0.3122,0.3091,0.3076,0.3053,0.3032,0.3007,0.3001,0.2965,0.2971,0.2956,0.294,0.294,0.2935,0.2929,0.2935,0.2941,0.294,0.2932,0.2932,0.2932,0,0.3313,0.3269,0.3245,0.323,0.3186,0.3175,0.3156,0.3124,0.3107,0.3079,0.3067,0.3036,0.3019,0.2995,0.2966,0.2964,0.2934,0.2925,0.2921,0.2921,0.2915,0.2916,0.2918,0.2905,0.2905,0.2905,0.2905,0,0.3309,0.329,0.3251,0.3236,0.3214,0.3185,0.3165,0.3143,0.3116,0.3096,0.3071,0.3053,0.3016,0.2993,0.297,0.2945,0.2937,0.2924,0.2918,0.2926,0.2928,0.2916,0.2915,0.2905,0.2905,0.2905,0.2905,0,0.3321,0.3294,0.3265,0.3227,0.3217,0.3203,0.317,0.3154,0.3132,0.3107,0.3099,0.3063,0.3035,0.3005,0.2965,0.295,0.2926,0.2918,0.2937,0.2934,0.2931,0.2932,0.2926,0.2924,0.2912,0.2912,0.2913,0,0.332,0.3305,0.3266,0.3252,0.3234,0.3211,0.3194,0.3164,0.3147,0.3111,0.31,0.307,0.3045,0.3,0.297,0.2941,0.2931,0.2931,0.2927,0.2936,0.2932,0.2933,0.2932,0.2933,0.2933,0.2933,0.2934,0,0.3321,0.3309,0.3285,0.3258,0.3238,0.3214,0.319,0.3179,0.3145,0.3127,0.3099,0.3079,0.304,0.3011,0.2978,0.2957,0.294,0.2936,0.2933,0.2941,0.2953,0.2947,0.2942,0.2936,0.2935,0.2935,0.2935,0.2935,0.3326,0.3313,0.3284,0.3259,0.3238,0.3216,0.32,0.3177,0.3153,0.312,0.3104,0.3077,0.3046,0.3,0.298,0.2957,0.2952,0.2948,0.2947,0.2946,0.2949,0.2957,0.2951,0.2951,0.2951,0.2951,0.2951,0,0.3326,0.3307,0.3285,0.3252,0.3233,0.322,0.3192,0.3177,0.3153,0.3127,0.3103,0.3071,0.3043,0.3012,0.2982,0.297,0.2961,0.2963,0.2964,0.2959,0.2955,0.2961,0.2971,0.2971,0.2971,0.2971,0.2971,0.2971,0.3324,0.3302,0.3287,0.3253,0.3233,0.3207,0.3193,0.3172,0.3152,0.3118,0.3095,0.3076,0.3047,0.3016,0.2989,0.2981,0.2971,0.2975,0.2965,0.2961,0.2959,0.2958,0.2963,0.2973,0.2973,0.2971,0.2971,0.2971]},{"header":{"parameterUnit":"m.s-1","parameterCategory":1,"la1":30.2991,"la2":30.254,"lo1":-89.0895,"lo2":-89.0444,"dy":0.0017,"dx":0.0017,"nx":28,"ny":28,"refTime":"2023-08-31T21:00:00:Z","depth":0,"parameterNumber":3,"parameterNumberName":"V-component_of_WINDS"},"data":[0,0,0,0,0,0,0,0,0,0,0,0,0,0,0,0,0,0,0,0,0,0,0,0,0,0,0,0,0,0,0,0,0,0,0,0,0,0,0,0,0,0,0,0,0,0,0,0,0,0,0,0,0,0,0,0,0,0,-0.07,-0.07,0,-0.0635,-0.0635,-0.0634,-0.0568,-0.0567,-0.0566,-0.0565,-0.0499,-0.0498,-0.0497,0,0,0,0,0,0,0,0,0,0,0,0,0,-0.0768,-0.0768,-0.07,-0.07,-0.0699,-0.0635,-0.0635,-0.0634,-0.0568,-0.0567,-0.0566,-0.0565,-0.0499,-0.0498,-0.0497,0,0,0,0,0,0,0,0,0,0,0,0,0,-0.0725,-0.0767,-0.0701,-0.0658,-0.0654,-0.0636,-0.0634,-0.0633,-0.0568,-0.0567,-0.0566,-0.0564,-0.05,-0.0498,-0.0497,-0.0515,0,0,-0.0493,-0.0492,0,0,0,0,0,0,0,0,-0.0727,-0.0722,-0.0665,-0.0661,-0.0656,-0.0608,-0.0634,-0.0594,-0.0569,-0.0601,-0.0565,-0.0564,-0.0536,-0.0532,-0.0523,-0.0512,-0.0509,-0.0492,-0.0492,-0.0491,-0.0491,0,0,0,0,0,0,0,-0.073,-0.0725,-0.0675,-0.0665,-0.0659,-0.0643,-0.0635,-0.0626,-0.0577,-0.0598,-0.0593,-0.0586,-0.0534,-0.0524,-0.0521,-0.0508,-0.0492,-0.0491,-0.049,-0.049,-0.0508,-0.0509,0,0,0,0,0,0,-0.074,-0.0728,-0.0677,-0.0673,-0.0689,-0.0643,-0.0634,-0.0625,-0.0577,-0.0568,-0.0587,-0.0583,-0.0527,-0.0522,-0.0518,-0.0535,-0.0491,-0.049,-0.0489,-0.0507,-0.0508,-0.051,0,0,0,0,0,0,-0.0742,-0.0736,-0.0679,-0.0699,-0.069,-0.0643,-0.0633,-0.0625,-0.0615,-0.0569,-0.056,-0.0587,-0.0526,-0.052,-0.0516,-0.0532,-0.0489,-0.0488,-0.0505,-0.0507,-0.0509,-0.0571,0,0,0,0,0,0,-0.0744,-0.0737,-0.0743,-0.0699,-0.069,-0.0679,-0.0634,-0.0624,-0.0613,-0.0607,-0.0566,-0.0558,-0.0524,-0.0518,-0.0515,-0.053,-0.0487,-0.0504,-0.0506,-0.0509,-0.0567,-0.0575,-0.0582,0,0,0,0,0,-0.0746,-0.0763,-0.0744,-0.0738,-0.0696,-0.068,-0.0674,-0.0635,-0.0614,-0.062,-0.0591,-0.0559,-0.0531,-0.0519,-0.0514,-0.0529,-0.0502,-0.0505,-0.0508,-0.0564,-0.0574,-0.0581,0,0,0,0,0,0,-0.081,-0.0757,-0.0735,-0.0738,-0.0714,-0.0669,-0.0675,-0.0646,-0.0628,-0.0623,-0.0576,-0.0567,-0.0569,-0.0548,-0.0535,-0.0543,-0.0512,-0.0515,-0.0557,-0.0565,-0.0572,-0.0577,-0.0485,0,0,0,0,0,-0.0825,-0.0815,-0.0769,-0.0776,-0.0766,-0.0723,-0.0714,-0.0686,-0.0659,-0.0649,-0.0619,-0.0594,-0.058,-0.0571,-0.0556,-0.0564,-0.0554,-0.0572,-0.0579,-0.0585,-0.0587,-0.059,-0.0597,-0.052,-0.052,-0.052,0,0,-0.0854,-0.0824,-0.0821,-0.0789,-0.0767,-0.0758,-0.0714,-0.0707,-0.07,-0.0648,-0.0642,-0.0619,-0.0589,-0.0591,-0.0591,-0.0574,-0.0607,-0.0589,-0.0594,-0.0593,-0.0594,-0.0601,-0.0608,-0.0522,-0.0521,-0.0521,0,0,-0.0904,-0.088,-0.0883,-0.0862,-0.083,-0.0801,-0.0802,-0.0761,-0.0744,-0.0738,-0.0698,-0.0689,-0.0666,-0.0645,-0.0632,-0.0674,-0.0645,-0.0671,-0.0707,-0.0711,-0.0717,-0.0722,-0.0737,-0.0743,-0.0673,-0.0673,-0.0673,0,-0.0945,-0.093,-0.0889,-0.0884,-0.0871,-0.0823,-0.0826,-0.0808,-0.0772,-0.0764,-0.0746,-0.0715,-0.0691,-0.0688,-0.0698,-0.0689,-0.0689,-0.0675,-0.0719,-0.0724,-0.0728,-0.0742,-0.0747,-0.0677,-0.0676,-0.0676,-0.0676,0,-0.0982,-0.0973,-0.0979,-0.0946,-0.0934,-0.0933,-0.0892,-0.0884,-0.0858,-0.0831,-0.0825,-0.0795,-0.0772,-0.0769,-0.0743,-0.0762,-0.0753,-0.0728,-0.0696,-0.074,-0.0752,-0.0756,-0.0681,-0.068,-0.0679,-0.0678,0,0,-0.1069,-0.1013,-0.1016,-0.1,-0.0961,-0.0953,-0.0951,-0.0928,-0.0923,-0.09,-0.0896,-0.0877,-0.0854,-0.0839,-0.081,-0.0813,-0.0848,-0.0787,-0.0786,-0.0799,-0.0867,-0.0886,-0.0893,-0.0829,-0.0829,-0.083,-0.087,0,-0.1111,-0.1103,-0.1066,-0.1069,-0.106,-0.1015,-0.1012,-0.0988,-0.0963,-0.0952,-0.0924,-0.0912,-0.0882,-0.0872,-0.0873,-0.0844,-0.0861,-0.0841,-0.0824,-0.0824,-0.0833,-0.0899,-0.0919,-0.0958,-0.0874,-0.0875,-0.0875,0,-0.116,-0.114,-0.1142,-0.1103,-0.1098,-0.1097,-0.1073,-0.1063,-0.1035,-0.1016,-0.1,-0.0968,-0.0962,-0.0933,-0.0924,-0.0911,-0.0902,-0.0887,-0.0888,-0.0884,-0.0852,-0.0897,-0.0969,-0.0975,-0.0882,-0.0882,-0.0881,0,-0.1223,-0.1197,-0.1194,-0.1182,-0.1137,-0.1137,-0.1118,-0.1089,-0.1078,-0.1057,-0.105,-0.1029,-0.1018,-0.1003,-0.0966,-0.0948,-0.0962,-0.0929,-0.0946,-0.0947,-0.095,-0.0951,-0.1022,-0.0946,-0.0946,-0.0946,-0.0946,0,-0.1274,-0.1277,-0.1222,-0.1221,-0.1223,-0.1181,-0.1184,-0.116,-0.1135,-0.1128,-0.1088,-0.1082,-0.1034,-0.1023,-0.0995,-0.0992,-0.0987,-0.0972,-0.0964,-0.0975,-0.0977,-0.0969,-0.0965,-0.0947,-0.0947,-0.0947,-0.0946,0,-0.1344,-0.1308,-0.1302,-0.126,-0.1249,-0.1253,-0.1217,-0.1214,-0.1187,-0.1179,-0.1174,-0.1132,-0.1117,-0.1079,-0.1054,-0.1035,-0.104,-0.1026,-0.1049,-0.1044,-0.1063,-0.1062,-0.1131,-0.1137,-0.1058,-0.1059,-0.106,0,-0.1378,-0.138,-0.1338,-0.1331,-0.1313,-0.1302,-0.1291,-0.1249,-0.1239,-0.1207,-0.1208,-0.119,-0.1173,-0.1152,-0.1118,-0.1099,-0.1084,-0.111,-0.1081,-0.1092,-0.1084,-0.1084,-0.1084,-0.1116,-0.1117,-0.1118,-0.1119,0,-0.1444,-0.1426,-0.1411,-0.139,-0.1378,-0.1359,-0.1339,-0.1335,-0.1288,-0.1279,-0.1263,-0.1251,-0.1225,-0.1208,-0.1183,-0.1164,-0.1133,-0.1128,-0.1131,-0.1142,-0.1155,-0.1148,-0.1066,-0.1126,-0.1126,-0.1125,-0.1125,-0.1124,-0.1496,-0.1495,-0.1466,-0.1451,-0.1431,-0.1413,-0.1408,-0.138,-0.1367,-0.1343,-0.132,-0.1306,-0.1278,-0.1242,-0.1225,-0.1214,-0.1198,-0.1202,-0.1203,-0.1205,-0.1209,-0.1158,-0.1209,-0.1209,-0.1209,-0.1208,-0.1208,0,-0.1559,-0.1538,-0.1525,-0.1497,-0.1485,-0.1458,-0.1434,-0.1426,-0.1415,-0.1391,-0.1376,-0.1358,-0.1341,-0.1307,-0.1286,-0.1284,-0.127,-0.128,-0.128,-0.1275,-0.1225,-0.1224,-0.1292,-0.1292,-0.1292,-0.1292,-0.1292,-0.1292,-0.159,-0.1587,-0.1566,-0.1553,-0.1531,-0.1518,-0.1507,-0.149,-0.147,-0.1452,-0.1438,-0.1416,-0.1388,-0.1365,-0.1348,-0.1339,-0.1333,-0.1348,-0.1334,-0.1287,-0.1279,-0.1271,-0.1271,-0.1347,-0.1347,-0.1385,-0.1385,-0.1386]}]]